Regional Weather Roundup
Issued by NWS State College, PA

Home | Current Version | Previous Version | Text Only | Print | Product List | Glossary On
Versions: 1 2 3 4 5 6 7 8 9 10 11 12 13 14 15 16 17 18 19 20 21 22 23 24 25 26 27 28 29 30 31 32 33 34 35 36 37 38 39 40 41 42 43 44 45 46 47 48 49 50
000
ASUS41 KCTP 310603
RWRCTP

REGIONAL WEATHER ROUNDUP
NATIONAL WEATHER SERVICE STATE COLLEGE PA
200 AM EDT SAT JUL 31 2021

Note: "fair" indicates few or no clouds below 12,000 feet with no
significant weather and/or obstructions to visibility.

* = STATION THAT DOES NOT REPORT PRECIPITATION /E.G. RAIN...SNOW...ETC/
    THUNDER OR FOG.

PAZ002>004-007>009-013>016-020>023-029>032-310700-
WESTERN PENNSYLVANIA

CITY           SKY/WX    TMP DP  RH WIND       PRES   REMARKS
ERIE           CLOUDY    66  52  60 VRB6      30.06S
MEADVILLE      CLEAR     56  53  90 CALM      30.07F
FRANKLIN       CLEAR     54  52  93 CALM      30.08S
NEW CASTLE     FAIR      54  52  93 CALM      30.08S
BEAVER COUNTY  NOT AVBL
BUTLER         PTCLDY    54  52  93 CALM      30.08S
PITTSBURGH INT MOCLDY    62  52  69 CALM      30.07S
PITTSBURGH     PTCLDY    61  53  75 NW3       30.07F
INDIANA*       CLEAR     55  54  94 CALM      30.10F
LATROBE        PTCLDY    59  55  88 CALM      30.08S
WASHINGTON CO* MOCLDY    58  56  93 CALM      30.11S
$$

PAZ004>006-010>012-017>019-024>028-033>037-041-042-045-046-049>053-310700-
CENTRAL PENNSYLVANIA

CITY           SKY/WX    TMP DP  RH WIND       PRES   REMARKS
BRADFORD       CLEAR     48  44  86 CALM      30.06S
ST MARYS       NOT AVBL
DUBOIS         CLEAR     52  48  86 CALM      30.06S
CLEARFIELD     CLEAR     53  51  93 CALM      30.06S
JOHNSTOWN      PTCLDY    58  49  72 CALM      30.08S
SOMERSET       FAIR      55  50  82 CALM      30.10S
ALTOONA        PTCLDY    55  49  80 CALM      30.06F
STATE COLLEGE  NOT AVBL
REEDSVILLE     FAIR      57  52  82 CALM      30.03
WELLSBORO      MOCLDY    50  48  93 CALM      30.05S
WILLIAMSPORT   CLEAR     56  51  84 W3        30.01F
SELINSGROVE    CLEAR     54  51  90 CALM      30.03S
FT INDIANTOWN  CLEAR     60  51  73 CALM      30.02R
CAPITAL CITY   PTCLDY    67  50  54 N3        30.02R
HARRISBURG     PTCLDY    66  50  56 N7        30.01R
YORK           PTCLDY    57  54  89 CALM      30.02R
$$

PAZ038>040-043-044-047-048-054-055-060>062-067>071-310700-
EASTERN PENNSYLVANIA

CITY           SKY/WX    TMP DP  RH WIND       PRES   REMARKS
TOWANDA        CLEAR     54  54 100 CALM      30.06S
SCRANTON       CLEAR     55  51  86 CALM      30.02F
MOUNT POCONO   CLEAR     53  47  79 NW13      30.01S
HAZLETON       NOT AVBL
LEHIGHTON      NOT AVBL
ALLENTOWN      CLEAR     58  48  69 N5        30.00S
QN CITY/ALNTWN FAIR      63  50  63 CALM      30.02S
QUAKERTOWN*    NOT AVBL
PERKASIE*      CLEAR     59  48  67 N3        30.01S
DOYLESTOWN     CLEAR     59  49  69 CALM      30.00R
READING        CLEAR     62  54  74 CALM      30.00R
LANCASTER      CLEAR     64  52  64 CALM      30.01R
COATESVILLE    CLEAR     63  54  72 N3        30.02S
WEST CHESTER   CLEAR     64  52  63 N3        30.01S
POTTSTOWN      CLEAR     59  50  72 NW3       30.02S
BLUE BELL      CLEAR     57  54  89 CALM      30.01S
NORTH PHILA    CLEAR     65  49  56 N9        30.01R
PHILADELPHIA   PTCLDY    68  48  48 N13       30.00R
$$



USA.gov is the U.S. government's official web portal to all federal, state and local government web resources and services.